Regional Weather Roundup
Issued by NWS

Home | Current Version | Previous Version | Text Only | Print | Product List | Glossary Off
Versions: 1 2 3 4 5 6 7 8 9 10 11 12 13 14 15 16 17 18 19 20 21 22 23 24 25 26 27 28 29 30 31 32 33 34 35 36 37 38 39 40 41 42 43 44 45 46 47 48 49 50

000
ASUS43 KLMK 300802
RWRKY
KENTUCKY REGIONAL WEATHER ROUNDUP
NATIONAL WEATHER SERVICE LOUISVILLE KY
400 AM EDT SAT JUL 30 2016

NOTE "FAIR" INDICATES FEW OR NO CLOUDS BELOW 12,000 FEET
WITH NO SIGNIFICANT WEATHER AND/OR OBSTRUCTIONS TO VISIBILITY.

KYZ001>023-026-027-061>063-070>075-300900-
WESTERN AND SOUTH CENTRAL KENTUCKY

CITY           SKY/WX    TMP DP  RH WIND       PRES   REMARKS
PADUCAH        CLOUDY    71  69  93 CALM      29.94S
HENDERSON      CLOUDY    72  68  88 W3        29.92S
OWENSBORO      PTCLDY    72  72 100 CALM      29.93F FOG
HOPKINSVILLE   CLOUDY    72  71  98 W7        29.95R
BOWLING GREEN  CLOUDY    74  71  91 CALM      29.95R
GLASGOW        NOT AVBL
$$

KYZ024-025-028>034-038-045-046-053-300900-
NORTH CENTRAL KENTUCKY

CITY           SKY/WX    TMP DP  RH WIND       PRES   REMARKS
LOUISVILLE/SDF MOCLDY    74  71  91 SW5       29.91S
LOUISVILLE/LOU CLEAR     74  71  91 CALM      29.92S
FORT KNOX      FOG       70  69  99 W3        29.92R VSB 1/4
$$

KYZ035>037-039>044-047>052-055>060-089>105-300900-
NORTHEAST KENTUCKY

CITY           SKY/WX    TMP DP  RH WIND       PRES   REMARKS
LEXINGTON      CLOUDY    72  69  90 CALM      29.94R
COVINGTON      CLOUDY    70  70 100 S3        29.91S
FRANKFORT      CLOUDY    71  68  90 CALM      29.93R
$$

KYZ054-064>069-076>088-106>120-300900-
SOUTHEAST KENTUCKY

CITY           SKY/WX    TMP DP  RH WIND       PRES   REMARKS
JACKSON        CLEAR     69  67  93 CALM      29.96F
LONDON         MOCLDY    70  67  90 CALM      29.96S
SOMERSET       CLOUDY    70  70 100 CALM      29.96S
MIDDLESBORO    CLOUDY    69  69  99 CALM      29.99R
MONTICELLO     CLOUDY   N/A N/A N/A CALM      29.97S
$$




USA.gov is the U.S. government's official web portal to all federal, state and local government web resources and services.